Regional Weather Roundup
Issued by NWS Cleveland, OH

Home | Current Version | Previous Version | Graphics & Text | Print | Product List | Glossary On
Versions: 1 2 3 4 5 6 7 8 9 10 11 12 13 14 15 16 17 18 19 20 21 22 23 24 25 26 27 28 29 30 31 32 33 34 35 36 37 38 39 40 41 42 43 44 45 46 47 48 49 50
163
ASUS41 KCLE 231710
RWRCLE
OHIO REGIONAL WEATHER ROUNDUP
NATIONAL WEATHER SERVICE CLEVELAND, OH
100 PM EDT MON OCT 23 2017

NOTE: "FAIR" INDICATES FEW OR NO CLOUDS BELOW 12,000 FEET WITH NO
SIGNIFICANT WEATHER AND/OR OBSTRUCTIONS TO VISIBILITY.

OHZ001>008-015>018-024>027-034-035-043-044-231800-
   NORTHWEST OHIO

CITY           SKY/WX    TMP DP  RH WIND       PRES   REMARKS
DEFIANCE       CLOUDY    64  57  78 SE13      29.71F
FINDLAY        RAIN      63  59  87 SE17G25   29.73F FOG
TOLEDO EXPRESS LGT RAIN  63  62  97 SE6       29.75F
TOLEDO EXEC    LGT RAIN  65  60  84 SE13G22   29.77F
LIMA           CLOUDY    65  61  87 SE15G23   29.71F
$$

OHZ009>014-019>023-028>033-038-089-231800-
   NORTHEAST OHIO

CITY           SKY/WX    TMP DP  RH WIND       PRES   REMARKS
CLE-HOPKINS    CLOUDY    68  56  65 S18G26    29.85F
CLE-LAKEFRONT  CLOUDY    68  54  60 SE13G23   29.82F
CUY CO. ARPT   CLOUDY    70  54  56 SE10      29.85F
LORAIN-ELYRIA  NOT AVBL
ASHTABULA      CLOUDY    66  57  72 SE15G23   29.91F
AKRON-CANTON   LGT RAIN  65  56  72 SE15      29.88F
WOOSTER        LGT RAIN  63  57  81 SE8       29.86F
MANSFIELD      LGT RAIN  63  59  87 SE16G29   29.82F
YOUNGSTOWN     LGT RAIN  66  56  70 SE13G23   29.91F
$$

OHZ042-051>053-060>062-070>072-077>081-231800-
  SOUTHWEST OHIO

CITY           SKY/WX    TMP DP  RH WIND       PRES   REMARKS
CINC-COVINGTON LGT RAIN  63  62  97 S7        29.74F
CINC-LUNKEN    LGT RAIN  64  62  93 S7        29.76F
HAMILTON       LGT RAIN  66  62  87 S7        29.75F
DAYTON         CLOUDY    61  61 100 S10       29.75F
WRIGHT-PAT AFB CLOUDY    62  62  99 S8        29.74F
DAYTON GENERAL CLOUDY    63  59  87 S10       29.74F
WILMINGTON     CLOUDY    62  61  96 S6        29.76F
$$

OHZ036-037-039>041-045>050-054>059-063>069-073>076-082>088-231800-
  CENTRAL AND SOUTHEAST OHIO

CITY           SKY/WX    TMP DP  RH WIND       PRES   REMARKS
COLUMBUS       RAIN      64  63  96 SE16G24   29.78F FOG
OSU AIRPORT    LGT RAIN  64  64 100 SE14G23   29.76F
BOLTON FIELD   LGT RAIN  63  63 100 SE14G23   29.77F
RICKENBACK AFB CLOUDY    63  63 100 SE15G21   29.76F
NEWARK         LGT RAIN  64  61  90 SE7       29.80F
MARION         LGT RAIN  64  60  87 SE20      29.79F
LANCASTER      LGT RAIN  63  62  97 SE12      29.80F
ZANESVILLE     LGT RAIN  63  60  90 SE12G20   29.84F
NEW PHILLY     NOT AVBL
$$




USA.gov is the U.S. government's official web portal to all federal, state and local government web resources and services.